NIUSat (42766 NORAD) Tracking and Keplerian Element Data

This shows tracking and keplerian element data for the satellite.

Feedback or suggestion? Click here.




ElementValue
Catalog42766
NameNIUSat
Epoch Orbit7650
Epoch Day312.78087619
Epoch Year2018
RAAN9.1415
Inclination97.3838
Eccentricity0.0014222
Argument of Perigee278.9268
Mean Anonmoly81.0357
Mean Motion15.20676692
Decay Rate1.022E-05
L11 42766U 17036B 18312.78087619 .00001022 00000-0 49561-4 0 9997
L22 42766 97.3838 9.1415 0014222 278.9268 81.0357 15.20676692 76504

Live tracking and technical data element details for NIUSat (NORAD 42766). NIUSat can be tracked NOW for your location showing map with azimuth and elevation plus other details from your city location.

Track the satellite on the map from your city or location and see movement details for azimuth, elevation, latitude, longitude, range, height, and movement on the map or in text.







IsCatalogInMostPopularTable: catalog: 42766, numindb: 128
Update: records affected: 1



GetName: 42766 NIUSat

Hit Count: updated at: Wed, 14 Nov 2018 12:10:41 GMT